TimeEDT,TemperatureF,Dew PointF,Humidity,Sea Level PressureIn,VisibilityMPH,Wind Direction,Wind SpeedMPH,Gust SpeedMPH,PrecipitationIn,Events,Conditions,WindDirDegrees,DateUTC
12:15 AM,48.2,48.2,100,29.93,0.8,NNE,8.1,-,N/A,,Overcast,20,2012-10-28 04:15:00
12:35 AM,48.2,48.2,100,29.93,10.0,North,6.9,-,N/A,,Overcast,10,2012-10-28 04:35:00
12:55 AM,48.2,48.2,100,29.92,7.0,NNE,6.9,-,N/A,,Overcast,30,2012-10-28 04:55:00
1:15 AM,48.2,48.2,100,29.91,10.0,NE,5.8,16.1,N/A,,Overcast,50,2012-10-28 05:15:00
1:35 AM,48.2,48.2,100,29.90,10.0,NE,10.4,-,N/A,,Overcast,40,2012-10-28 05:35:00
1:55 AM,48.2,48.2,100,29.90,10.0,NNE,11.5,16.1,N/A,,Overcast,20,2012-10-28 05:55:00
2:15 AM,48.2,48.2,100,29.90,5.0,NNE,12.7,-,N/A,,Overcast,30,2012-10-28 06:15:00
2:35 AM,48.2,48.2,100,29.89,4.0,NNE,8.1,-,N/A,,Overcast,30,2012-10-28 06:35:00
2:55 AM,48.2,48.2,100,29.89,1.0,NNE,10.4,-,N/A,,Overcast,20,2012-10-28 06:55:00
3:15 AM,48.2,48.2,100,29.89,5.0,NNE,12.7,18.4,N/A,,Overcast,20,2012-10-28 07:15:00
3:35 AM,48.2,48.2,100,29.89,7.0,NNE,11.5,23.0,N/A,,Overcast,20,2012-10-28 07:35:00
3:55 AM,48.2,48.2,100,29.88,7.0,NNE,11.5,17.3,N/A,,Overcast,20,2012-10-28 07:55:00
4:15 AM,48.2,48.2,100,29.88,1.2,North,10.4,19.6,N/A,,Overcast,10,2012-10-28 08:15:00
4:35 AM,46.4,46.4,100,29.87,1.5,North,10.4,20.7,N/A,,Overcast,10,2012-10-28 08:35:00
4:55 AM,46.4,46.4,100,29.86,5.0,North,11.5,18.4,N/A,,Overcast,10,2012-10-28 08:55:00
5:15 AM,48.2,48.2,100,29.86,10.0,NNE,11.5,18.4,N/A,,Overcast,20,2012-10-28 09:15:00
5:35 AM,48.2,48.2,100,29.86,10.0,NNE,11.5,17.3,N/A,,Overcast,20,2012-10-28 09:35:00
5:55 AM,48.2,48.2,100,29.86,7.0,NNE,13.8,18.4,N/A,,Overcast,30,2012-10-28 09:55:00
6:15 AM,46.4,46.4,100,29.86,5.0,NNE,13.8,18.4,N/A,,Overcast,30,2012-10-28 10:15:00
6:35 AM,46.4,46.4,100,29.85,0.2,NE,13.8,23.0,N/A,Fog,Fog,40,2012-10-28 10:35:00
6:55 AM,46.4,46.4,100,29.85,0.2,NNE,11.5,16.1,N/A,Rain,Light Rain,20,2012-10-28 10:55:00
7:15 AM,46.4,46.4,100,29.84,0.2,North,10.4,16.1,N/A,Fog,Fog,10,2012-10-28 11:15:00
7:35 AM,46.4,46.4,100,29.84,0.2,North,9.2,-,N/A,Fog,Fog,350,2012-10-28 11:35:00
7:55 AM,46.4,46.4,100,29.84,4.0,North,11.5,17.3,N/A,,Overcast,10,2012-10-28 11:55:00
8:15 AM,46.4,46.4,100,29.85,10.0,NNE,12.7,18.4,N/A,,Overcast,30,2012-10-28 12:15:00
8:35 AM,46.4,46.4,100,29.84,4.0,NNE,10.4,16.1,N/A,,Overcast,20,2012-10-28 12:35:00
8:55 AM,46.4,46.4,100,29.84,10.0,NNE,9.2,-,N/A,,Overcast,20,2012-10-28 12:55:00
9:15 AM,46.4,46.4,100,29.84,10.0,NNE,12.7,19.6,N/A,,Overcast,30,2012-10-28 13:15:00
9:35 AM,46.4,46.4,100,29.84,10.0,NE,13.8,19.6,N/A,,Overcast,40,2012-10-28 13:35:00
9:55 AM,46.4,44.6,93,29.84,10.0,NNE,13.8,19.6,N/A,,Overcast,30,2012-10-28 13:55:00
10:35 AM,46.4,41.0,81,29.83,10.0,NNE,11.5,18.4,N/A,,Overcast,30,2012-10-28 14:35:00
10:55 AM,46.4,41.0,81,29.83,10.0,NNE,10.4,-,N/A,,Overcast,20,2012-10-28 14:55:00
11:15 AM,46.4,41.0,81,29.83,10.0,North,9.2,-,N/A,,Overcast,10,2012-10-28 15:15:00
11:35 AM,46.4,39.2,76,29.83,10.0,North,9.2,-,N/A,,Overcast,10,2012-10-28 15:35:00
11:55 AM,46.4,39.2,76,29.83,10.0,North,9.2,-,N/A,,Overcast,360,2012-10-28 15:55:00
12:15 PM,46.4,39.2,76,29.82,10.0,North,10.4,-,N/A,,Overcast,360,2012-10-28 16:15:00
12:35 PM,46.4,39.2,76,29.81,10.0,NNW,6.9,-,N/A,,Overcast,330,2012-10-28 16:35:00
12:55 PM,46.4,39.2,76,29.80,10.0,NNW,8.1,-,N/A,,Overcast,340,2012-10-28 16:55:00
1:15 PM,46.4,41.0,81,29.79,10.0,NNW,6.9,-,N/A,,Drizzle,340,2012-10-28 17:15:00
1:35 PM,44.6,42.8,93,29.79,10.0,NNW,8.1,-,N/A,,Overcast,340,2012-10-28 17:35:00
1:55 PM,46.4,42.8,87,29.78,10.0,NNW,8.1,-,N/A,,Overcast,330,2012-10-28 17:55:00
2:15 PM,46.4,44.6,93,29.77,10.0,NW,9.2,-,N/A,,Overcast,320,2012-10-28 18:15:00
2:35 PM,46.4,42.8,87,29.76,10.0,NW,8.1,-,N/A,,Overcast,320,2012-10-28 18:35:00
2:55 PM,46.4,44.6,93,29.75,10.0,NW,6.9,-,N/A,,Overcast,320,2012-10-28 18:55:00
3:15 PM,46.4,44.6,93,29.75,10.0,NW,6.9,-,N/A,,Overcast,320,2012-10-28 19:15:00
3:35 PM,46.4,44.6,93,29.75,10.0,NW,8.1,-,N/A,,Overcast,320,2012-10-28 19:35:00
3:55 PM,46.4,42.8,87,29.75,10.0,NNW,9.2,-,N/A,,Overcast,330,2012-10-28 19:55:00
4:15 PM,46.4,42.8,87,29.76,10.0,NW,9.2,-,N/A,,Overcast,320,2012-10-28 20:15:00
4:35 PM,46.4,42.8,87,29.76,10.0,NW,10.4,-,N/A,,Overcast,320,2012-10-28 20:35:00
4:55 PM,44.6,42.8,93,29.75,10.0,NW,8.1,-,N/A,,Overcast,310,2012-10-28 20:55:00
5:15 PM,44.6,42.8,93,29.75,10.0,NW,10.4,-,N/A,,Overcast,320,2012-10-28 21:15:00
5:35 PM,44.6,42.8,93,29.75,10.0,NW,9.2,-,N/A,,Overcast,310,2012-10-28 21:35:00
5:55 PM,42.8,42.8,100,29.76,10.0,NW,10.4,-,N/A,,Overcast,310,2012-10-28 21:55:00
6:15 PM,42.8,41.0,93,29.76,10.0,WNW,10.4,-,N/A,,Overcast,300,2012-10-28 22:15:00
6:35 PM,41.0,41.0,100,29.76,3.0,NW,11.5,-,N/A,,Overcast,320,2012-10-28 22:35:00
6:55 PM,41.0,41.0,100,29.76,0.2,NW,9.2,-,N/A,Rain,Rain,310,2012-10-28 22:55:00
7:15 PM,39.2,39.2,100,29.77,0.2,NW,11.5,-,N/A,Rain,Light Rain,320,2012-10-28 23:15:00
7:35 PM,39.2,39.2,100,29.77,0.2,NW,12.7,-,0.01,Rain,Light Rain,310,2012-10-28 23:35:00
7:55 PM,39.2,39.2,100,29.76,0.2,WNW,13.8,18.4,N/A,Rain,Light Rain,300,2012-10-28 23:55:00
8:15 PM,39.2,39.2,100,29.76,0.2,WNW,12.7,-,0.01,Rain,Rain,300,2012-10-29 00:15:00
8:35 PM,39.2,39.2,100,29.76,0.2,NW,12.7,18.4,0.02,,Drizzle,310,2012-10-29 00:35:00
8:55 PM,39.2,39.2,100,29.76,0.2,WNW,13.8,21.9,0.01,Rain,Light Rain,300,2012-10-29 00:55:00
9:15 PM,39.2,39.2,100,29.76,0.2,NW,16.1,21.9,0.03,Rain,Light Rain,310,2012-10-29 01:15:00
9:55 PM,37.4,37.4,100,29.76,0.2,WNW,13.8,18.4,0.01,Rain,Light Rain,300,2012-10-29 01:55:00
10:15 PM,37.4,37.4,100,29.75,0.2,WNW,17.3,24.2,0.01,Rain,Light Rain,300,2012-10-29 02:15:00
10:35 PM,37.4,37.4,100,29.75,0.2,WNW,13.8,24.2,0.01,Snow,Light Snow,300,2012-10-29 02:35:00
10:55 PM,37.4,37.4,100,29.75,0.2,NW,16.1,24.2,N/A,Snow,Light Snow,310,2012-10-29 02:55:00
11:15 PM,37.4,37.4,100,29.75,0.2,WNW,15.0,23.0,0.01,Snow,Light Snow,300,2012-10-29 03:15:00
11:35 PM,35.6,35.6,100,29.75,0.2,WNW,18.4,21.9,0.02,Snow,Light Snow,300,2012-10-29 03:35:00
11:55 PM,35.6,35.6,100,29.74,0.2,WNW,17.3,-,0.01,Rain,Light Rain,290,2012-10-29 03:55:00